Flag for Philippines Weather past 2 weeks in Mabalacat, Philippines

Now
75 °F

Partly sunny.


Feels Like: 75 °F
Forecast: 71 / 85 °F
Wind: 7 mph from North

Location: Clarkfield Pampanga International Airport

Current Time: Jan 29, 2015 at 8:31:35 AM

Latest Report: Jan 29, 2015 at 8:00 AM


Visibility: N/A

Pressure: 29.98 "Hg

Humidity: 89%

Dew point: 72 °F

Location of MabalacatLocation

Historic Weather in Mabalacat — Graph

°F

Mabalacat temperature yesterday

Maximum temperature yesterday: 86 °F (at 1:00 PM)
Minimum temperature yesterday: 72 °F (at 2:00 AM)
Average temperature yesterday: 79 °F

Past Weeks' High & Low Weather Summary

 TemperatureHumidityPressure
High86 °F (Jan 14, 4:00 PM)100% (Jan 14, 11:00 PM)30.09 "Hg (Jan 14, 11:00 PM)
Low66 °F (Jan 19, 7:00 AM)48% (Jan 17, 4:00 PM)29.83 "Hg (Jan 18, 3:00 PM)
Average76 °F76%29.97 "Hg
* Reported Jan 14 7:00 AM — Jan 29 7:00 AM, Mabalacat, Weather by CustomWeather, © 2014

Note: Actual official high and low records may vary slightly from our data, if they occured in-between our weather recording intervals... More about our weather records

Advertising

Mabalacat weather history for previous 24 hours

 ConditionsComfort  
Time TempWeatherWind HumidityBarometerVisibility
7:00 AM
Jan 29
73 °FPartly sunny.7 mph94%29.95 "HgN/A
6:00 AM72 °FPassing clouds.8 mph100%29.92 "HgN/A
5:00 AM73 °FPassing clouds.7 mph89%29.92 "HgN/A
4:00 AM73 °FPassing clouds.7 mph89%29.89 "HgN/A
3:00 AM75 °FPassing clouds.7 mph78%29.89 "HgN/A
2:00 AM75 °FPassing clouds.5 mph83%29.92 "HgN/A
1:00 AM75 °FPassing clouds.5 mph89%29.92 "HgN/A
12:00 AM75 °FPassing clouds.5 mph89%29.95 "HgN/A
11:00 PM
Jan 28
75 °FPassing clouds.2 mph89%29.95 "HgN/A
10:00 PM77 °FPassing clouds.5 mph83%29.95 "HgN/A
9:00 PM79 °FPartly cloudy.2 mph79%29.95 "HgN/A
8:00 PM79 °FPartly cloudy.5 mph79%29.92 "HgN/A
7:00 PM82 °FPassing clouds.5 mph70%29.89 "HgN/A
6:00 PM84 °FPassing clouds.5 mph62%29.86 "HgN/A
5:00 PM86 °FPartly sunny.6 mph59%29.86 "HgN/A
4:00 PM86 °FPartly sunny.7 mph55%29.83 "HgN/A
3:00 PM86 °FThunderstorms. Cloudy.N/A55%29.83 "HgN/A
2:00 PM86 °FBroken clouds.7 mph52%29.86 "HgN/A
1:00 PM86 °FBroken clouds.5 mph52%29.89 "HgN/A
12:00 PM84 °FPartly sunny.7 mph55%29.92 "HgN/A
11:00 AM82 °FPartly sunny.7 mph58%29.95 "HgN/A
10:00 AM81 °FPartly sunny.7 mph66%29.98 "HgN/A
8:00 AM77 °FScattered clouds.6 mph74%29.95 "HgN/A
Weather by CustomWeather, © 2014

See weather overviewHow to use our weather pages